EA5ZF Weather Reports


time (UTC)temp
C
wind
direction
speed
KPH
gust
KPH
rain 1hr
cm
rain 24hr
cm
rain mn
cm
humidity
%
barometer
mb
20260507123521 18 68 6.4 16.1 0.00 0.00 0.00 60 1013.1
20260507122543 18 68 9.7 16.1 0.00 0.00 0.00 63 1013.2
20260507121542 18 68 4.8 11.3 0.00 0.00 0.00 61 1013.4
20260507120521 18 113 4.8 12.9 0.00 0.00 0.00 67 1013.6
20260507115521 18 68 4.8 14.5 0.00 0.00 0.00 69 1013.7
20260507114542 18 113 8.0 17.7 0.00 0.00 0.00 71 1013.8
20260507113523 18 68 6.4 16.1 0.00 0.00 0.00 70 1013.9
20260507112522 19 68 6.4 14.5 0.00 0.00 0.00 68 1013.8
20260507111524 19 68 8.0 17.7 0.00 0.00 0.00 66 1014.0
20260507110521 20 68 4.8 20.9 0.00 0.00 0.00 62 1014.0
20260507105521 20 113 4.8 17.7 0.00 0.00 0.00 59 1013.9
20260507104521 19 45 6.4 19.3 0.00 0.00 0.00 60 1013.9
20260507103521 19 68 8.0 20.9 0.00 0.00 0.00 57 1013.9
20260507102524 20 68 8.0 20.9 0.00 0.00 0.00 57 1014.0
20260507101541 20 45 6.4 22.5 0.00 0.00 0.00 59 1014.0
20260507100521 18 45 8.0 19.3 0.00 0.00 0.00 60 1014.0
20260507095521 19 68 4.8 12.9 0.00 0.00 0.00 60 1014.1
20260507094523 18 68 8.0 17.7 0.00 0.00 0.00 65 1014.2
20260507093523 18 68 1.6 11.3 0.00 0.00 0.00 67 1014.2
20260507092521 18 315 8.0 16.1 0.00 0.00 0.00 68 1014.2
20260507091521 18 45 3.2 9.7 0.00 0.00 0.00 69 1014.1
20260507090528 18 45 6.4 14.5 0.00 0.00 0.00 69 1014.3
20260507085521 18 68 4.8 11.3 0.00 0.00 0.00 68 1014.3
20260507084521 17 45 3.2 11.3 0.00 0.00 0.00 70 1014.2
20260507083521 17 338 6.4 12.9 0.00 0.00 0.00 71 1014.2
20260507082525 17 45 6.4 17.7 0.00 0.00 0.00 72 1014.3
20260507081525 17 68 3.2 11.3 0.00 0.00 0.00 72 1014.2
20260507080523 17 68 8.0 17.7 0.00 0.00 0.00 72 1014.2
20260507075543 17 68 8.0 19.3 0.00 0.00 0.00 72 1014.1
20260507074525 17 45 4.8 16.1 0.00 0.00 0.00 72 1014.2
20260507073523 17 315 4.8 11.3 0.00 0.00 0.00 71 1014.1
20260507072543 17 23 4.8 16.1 0.00 0.00 0.00 72 1013.9
20260507071525 17 68 8.0 16.1 0.00 0.00 0.00 71 1013.9
20260507070523 17 45 4.8 12.9 0.00 0.00 0.00 72 1013.8
20260507065523 16 45 4.8 12.9 0.00 0.00 0.00 73 1013.8
20260507064523 16 45 8.0 14.5 0.00 0.00 0.00 74 1013.7
20260507063525 16 45 6.4 14.5 0.00 0.00 0.00 75 1013.7
20260507062542 16 68 3.2 9.7 0.00 0.00 0.00 75 1013.7
20260507061543 16 45 3.2 8.0 0.00 0.00 0.00 74 1013.7
20260507060523 16 45 3.2 9.7 0.00 0.00 0.00 73 1013.6
20260507055525 16 45 1.6 9.7 0.00 0.00 0.00 70 1013.6
20260507054522 15 0.0 3.2 0.00 0.00 0.00 69 1013.3
20260507053523 13 0.0 0.0 0.00 0.00 0.00 68 1013.2
20260507052523 12 0.0 0.0 0.00 0.00 0.00 69 1013.1
20260507051543 12 0.0 0.0 0.00 0.00 0.00 71 1012.9
20260507050523 11 0.0 1.6 0.00 0.00 0.00 71 1012.9
20260507045522 12 0.0 1.6 0.00 0.00 0.00 71 1012.8
20260507044522 11 0.0 0.0 0.00 0.00 0.00 70 1012.6
20260507043523 12 0.0 0.0 0.00 0.00 0.00 68 1012.6
20260507042527 12 0.0 1.6 0.00 0.00 0.00 68 1012.6
20260507041523 12 0.0 0.0 0.00 0.00 0.00 68 1012.6
20260507040522 12 0.0 1.6 0.00 0.00 0.00 68 1012.6
20260507035544 12 0.0 0.0 0.00 0.00 0.00 67 1012.6
20260507034522 12 0.0 0.0 0.00 0.00 0.00 68 1012.6
20260507033522 12 0.0 0.0 0.00 0.00 0.00 67 1012.6
20260507032522 12 0.0 1.6 0.00 0.00 0.00 68 1012.7
20260507031542 12 0.0 0.0 0.00 0.00 0.00 68 1012.7
20260507030523 12 0.0 0.0 0.00 0.00 0.00 68 1012.8
20260507025525 12 0.0 0.0 0.00 0.00 0.00 67 1012.7
20260507024524 12 0.0 0.0 0.00 0.00 0.00 67 1012.9
20260507023524 12 0.0 0.0 0.00 0.00 0.00 67 1012.9
20260507022523 12 0.0 0.0 0.00 0.00 0.00 68 1012.8
20260507021525 12 0.0 0.0 0.00 0.00 0.00 67 1012.8
20260507020522 12 0.0 0.0 0.00 0.00 0.00 66 1012.7
20260507015523 12 0.0 0.0 0.00 0.00 0.00 67 1012.9
20260507014524 12 0.0 0.0 0.00 0.00 0.00 67 1012.8
20260507013543 13 0.0 0.0 0.00 0.00 0.00 66 1012.8
20260507012524 13 0.0 0.0 0.00 0.00 0.00 66 1012.9
20260507011527 13 0.0 1.6 0.00 0.00 0.00 66 1012.9
20260507010522 13 0.0 1.6 0.00 0.00 0.00 64 1012.9
20260507005523 13 0.0 0.0 0.00 0.00 0.00 66 1013.1
20260507004522 13 0.0 0.0 0.00 0.00 0.00 65 1013.2
20260507003522 13 0.0 1.6 0.00 0.00 0.00 62 1013.3
20260507002522 14 0.0 0.0 0.00 0.00 0.00 64 1013.4
20260507001542 14 0.0 1.6 0.00 0.00 0.00 63 1013.5
20260507000543 14 0.0 1.6 0.00 0.00 0.00 62 1013.5
20260506235523 14 0.0 1.6 0.00 0.00 0.00 62 1013.5
20260506234522 14 0.0 1.6 0.00 0.00 0.00 62 1013.6
20260506233522 14 0.0 1.6 0.00 0.00 0.00 63 1013.7
20260506232522 14 0.0 0.0 0.00 0.00 0.00 66 1013.7
20260506231522 14 0.0 1.6 0.00 0.00 0.00 67 1013.9
20260506230541 14 0.0 1.6 0.00 0.00 0.00 66 1013.9
20260506225521 14 0.0 1.6 0.00 0.00 0.00 63 1014.0
20260506224522 14 0.0 1.6 0.00 0.00 0.00 67 1013.9
20260506223542 14 0.0 1.6 0.00 0.00 0.00 67 1013.9
20260506222523 14 0.0 1.6 0.00 0.00 0.00 62 1014.0
20260506221522 15 0.0 1.6 0.00 0.00 0.00 66 1014.0
20260506220521 15 0.0 0.0 0.00 0.00 0.00 63 1013.9
20260506215545 15 0.0 1.6 0.00 0.00 0.00 65 1013.8
20260506214522 15 0.0 0.0 0.00 0.00 0.00 65 1013.9
20260506213522 15 0.0 0.0 0.00 0.00 0.00 67 1013.9
20260506212522 15 0.0 1.6 0.00 0.00 0.00 69 1013.8
20260506211542 15 0.0 1.6 0.00 0.00 0.00 72 1013.8
20260506210522 15 0.0 1.6 0.00 0.00 0.00 73 1013.7
20260506205522 15 0.0 0.0 0.00 0.00 0.00 74 1013.7
20260506204546 15 338 1.6 4.8 0.00 0.00 0.00 73 1013.6
20260506203522 16 0.0 1.6 0.00 0.00 0.00 73 1013.5
20260506202522 16 338 1.6 3.2 0.00 0.00 0.00 72 1013.5
20260506201522 16 0.0 1.6 0.00 0.00 0.00 71 1013.4
20260506200522 16 0.0 1.6 0.00 0.00 0.00 71 1013.3
20260506195522 16 0.0 0.0 0.00 0.00 0.00 70 1013.1
20260506194523 16 0.0 1.6 0.00 0.00 0.00 69 1013.0
20260506193522 16 0.0 1.6 0.00 0.00 0.00 68 1012.9
20260506192520 17 0.0 3.2 0.00 0.00 0.00 69 1012.9
20260506191523 17 0.0 3.2 0.00 0.00 0.00 68 1012.8
20260506190522 17 135 3.2 6.4 0.00 0.00 0.00 68 1012.7
20260506185522 17 135 3.2 8.0 0.00 0.00 0.00 64 1012.6
20260506184522 17 135 1.6 4.8 0.00 0.00 0.00 63 1012.5
20260506183522 18 113 3.2 6.4 0.00 0.00 0.00 60 1012.4
20260506182522 18 113 3.2 8.0 0.00 0.00 0.00 59 1012.1
20260506181522 18 113 1.6 4.8 0.00 0.00 0.00 54 1012.1
20260506180522 18 0.0 3.2 0.00 0.00 0.00 55 1012.0
20260506175542 18 0.0 0.0 0.00 0.00 0.00 57 1012.0
20260506174521 18 0.0 3.2 0.00 0.00 0.00 58 1012.0
20260506173521 18 225 1.6 6.4 0.00 0.00 0.00 57 1012.0
20260506172521 18 113 1.6 6.4 0.00 0.00 0.00 59 1012.0
20260506171522 18 113 3.2 9.7 0.00 0.00 0.00 61 1012.0
20260506170522 18 135 4.8 11.3 0.00 0.00 0.00 62 1012.0
20260506165521 18 135 4.8 9.7 0.00 0.00 0.00 60 1012.0
20260506164541 18 113 3.2 11.3 0.00 0.00 0.00 63 1011.9
20260506163521 18 113 1.6 6.4 0.00 0.00 0.00 62 1012.0
20260506162522 18 135 8.0 19.3 0.00 0.00 0.00 62 1012.2
20260506161521 18 113 6.4 17.7 0.00 0.00 0.00 62 1012.2
20260506160521 18 135 4.8 12.9 0.00 0.00 0.00 63 1012.3
20260506155602 18 113 4.8 17.7 0.00 0.00 0.00 64 1012.4
20260506154541 18 68 4.8 11.3 0.00 0.00 0.00 64 1012.4
20260506153521 19 113 4.8 12.9 0.00 0.00 0.00 62 1012.4
20260506152522 18 113 6.4 16.1 0.00 0.00 0.00 63 1012.2
20260506151521 19 135 6.4 14.5 0.00 0.00 0.00 61 1012.3
20260506150521 19 45 3.2 9.7 0.00 0.00 0.00 60 1012.3
20260506145541 20 113 1.6 11.3 0.00 0.00 0.00 61 1012.3
20260506144521 19 315 1.6 8.0 0.00 0.00 0.00 62 1012.4
20260506143525 19 135 3.2 14.5 0.00 0.00 0.00 61 1012.3
20260506142525 20 0.0 4.8 0.00 0.00 0.00 61 1012.5
20260506141521 19 135 3.2 11.3 0.00 0.00 0.00 61 1012.6
20260506140601 19 45 6.4 14.5 0.00 0.00 0.00 62 1012.8
20260506135521 19 113 6.4 11.3 0.00 0.00 0.00 63 1012.7
20260506134541 19 113 6.4 14.5 0.00 0.00 0.00 64 1012.8
20260506133541 19 113 4.8 14.5 0.00 0.00 0.00 64 1012.9
20260506132521 19 135 4.8 17.7 0.00 0.00 0.00 65 1012.8
20260506131521 20 113 3.2 9.7 0.00 0.00 0.00 62 1012.8
20260506130521 19 135 3.2 11.3 0.00 0.00 0.00 60 1012.7
20260506125521 18 68 3.2 11.3 0.00 0.00 0.00 62 1012.9
20260506124541 19 135 8.0 19.3 0.00 0.00 0.00 61 1012.9
20260506123641 19 45 6.4 19.3 0.00 0.00 0.00 62 1013.0